Location: Fort Worth, Tx
(32.7431°N, 97.3695°W)
Time: 17:09:40
(UTC-04:00)

YUBILEINY - Visible Passes

Search period start: 30 March 2023 00:00
Search period end: 09 April 2023 00:00
Orbit: 1477 x 1509 km, 82.5° (Epoch: 30 March)

Date Brightness Start Highest point End Pass type
(mag) Time Alt. Az. Time Alt. Az. Time Alt. Az.
30 Mar ? 00:45:29 10° NNE 00:48:27 20° NNE 00:48:27 20° NNE visible
30 Mar ? 02:41:43 10° NNW 02:44:22 21° NNW 02:44:22 21° NNW visible
30 Mar ? 23:58:01 10° NE 23:59:23 12° NE 23:59:23 12° NE visible
31 Mar ? 01:51:46 10° N 01:55:18 28° N 01:55:18 28° N visible
01 Apr ? 01:02:27 10° N 01:06:14 27° NNE 01:06:14 27° NNE visible
01 Apr ? 03:00:01 10° NNW 03:02:09 17° NW 03:02:09 17° NW visible
02 Apr ? 00:13:53 10° NNE 00:17:11 20° NE 00:17:11 20° NE visible
02 Apr ? 02:09:31 10° NNW 02:13:06 27° NNW 02:13:06 27° NNW visible
02 Apr ? 23:27:31 10° NE 23:28:09 11° NE 23:28:09 11° NE visible
03 Apr ? 01:19:46 10° N 01:24:03 33° N 01:24:03 33° N visible
03 Apr ? 03:19:06 10° NW 03:19:58 12° NW 03:19:58 12° NW visible
04 Apr ? 00:30:38 10° N 00:35:02 29° NNE 00:35:02 29° NNE visible
04 Apr ? 02:27:38 10° NNW 02:30:56 23° NW 02:30:56 23° NW visible
04 Apr ? 23:42:25 10° NNE 23:46:01 18° NE 23:46:01 18° NE visible
05 Apr ? 01:37:23 10° NNW 01:41:55 35° NNW 01:41:55 35° NNW visible
06 Apr ? 00:47:49 10° N 00:52:55 38° NNE 00:52:55 38° NNE visible
06 Apr ? 02:46:18 10° NW 02:48:50 17° NW 02:48:50 17° NW visible
06 Apr ? 23:58:54 10° NNE 00:03:55 28° NE 00:03:55 28° NE visible
07 Apr ? 01:55:20 10° NNW 01:59:50 30° NW 01:59:50 30° NW visible
07 Apr ? 23:11:10 10° NNE 23:14:56 16° NE 23:14:56 16° NE visible
08 Apr ? 01:05:19 10° N 01:10:52 45° NNW 01:10:52 45° NNW visible
08 Apr ? 03:06:32 10° WNW 03:06:47 10° WNW 03:06:47 10° WNW visible
